Year,Month,Day,Hour,Minute,Value (Times are PST for temperature in C)
2011,08,14,00,00,14.70
2011,08,14,00,01,14.70
2011,08,14,00,02,14.70
2011,08,14,00,03,14.70
2011,08,14,00,04,14.70
2011,08,14,00,05,14.70
2011,08,14,00,06,14.70
2011,08,14,00,07,14.70
2011,08,14,00,08,14.70
2011,08,14,00,09,14.70
2011,08,14,00,10,14.70
2011,08,14,00,11,14.70
2011,08,14,00,12,14.70
2011,08,14,00,13,14.70
2011,08,14,00,14,14.70
2011,08,14,00,15,14.70
2011,08,14,00,16,14.70
2011,08,14,00,17,14.70
2011,08,14,00,18,14.70
2011,08,14,00,19,14.60
2011,08,14,00,20,14.60
2011,08,14,00,21,14.60
2011,08,14,00,22,14.60
2011,08,14,00,23,14.60
2011,08,14,00,24,14.60
2011,08,14,00,25,14.60
2011,08,14,00,26,14.60
2011,08,14,00,27,14.60
2011,08,14,00,28,14.60
2011,08,14,00,29,14.60
2011,08,14,00,30,14.60
2011,08,14,00,31,14.60
2011,08,14,00,32,14.60
2011,08,14,00,33,14.60
2011,08,14,00,34,14.60
2011,08,14,00,35,14.60
2011,08,14,00,36,14.60
2011,08,14,00,37,14.60
2011,08,14,00,38,14.60
2011,08,14,00,39,14.60
2011,08,14,00,40,14.60
2011,08,14,00,41,14.60
2011,08,14,00,42,14.60
2011,08,14,00,43,14.60
2011,08,14,00,44,14.60
2011,08,14,00,45,14.50
2011,08,14,00,46,14.50
2011,08,14,00,47,14.50
2011,08,14,00,48,14.50
2011,08,14,00,49,14.50
2011,08,14,00,50,14.50
2011,08,14,00,51,14.50
2011,08,14,00,52,14.50
2011,08,14,00,53,14.50
2011,08,14,00,54,14.50
2011,08,14,00,55,14.50
2011,08,14,00,56,14.50
2011,08,14,00,57,14.50
2011,08,14,00,58,14.50
2011,08,14,00,59,14.50
2011,08,14,01,00,14.50
2011,08,14,01,01,14.50
2011,08,14,01,02,14.50
2011,08,14,01,03,14.40
2011,08,14,01,04,14.40
2011,08,14,01,05,14.40
2011,08,14,01,06,14.40
2011,08,14,01,07,14.40
2011,08,14,01,08,14.40
2011,08,14,01,09,14.40
2011,08,14,01,10,14.40
2011,08,14,01,11,14.40
2011,08,14,01,12,14.40
2011,08,14,01,13,14.40
2011,08,14,01,14,14.40
2011,08,14,01,15,14.40
2011,08,14,01,16,14.40
2011,08,14,01,17,14.40
2011,08,14,01,18,14.40
2011,08,14,01,19,14.40
2011,08,14,01,20,14.40
2011,08,14,01,21,14.30
2011,08,14,01,22,14.30
2011,08,14,01,23,14.30
2011,08,14,01,24,14.30
2011,08,14,01,25,14.30
2011,08,14,01,26,14.30
2011,08,14,01,27,14.30
2011,08,14,01,28,14.30
2011,08,14,01,29,14.30
2011,08,14,01,30,14.30
2011,08,14,01,31,14.30
2011,08,14,01,32,14.30
2011,08,14,01,33,14.30
2011,08,14,01,34,14.30
2011,08,14,01,35,14.30
2011,08,14,01,36,14.30
2011,08,14,01,37,14.20
2011,08,14,01,38,14.20
2011,08,14,01,39,14.20
2011,08,14,01,40,14.20
2011,08,14,01,41,14.20
2011,08,14,01,42,14.20
2011,08,14,01,43,14.20
2011,08,14,01,44,14.20
2011,08,14,01,45,14.20
2011,08,14,01,46,14.20
2011,08,14,01,47,14.20
2011,08,14,01,48,14.20
2011,08,14,01,49,14.10
2011,08,14,01,50,14.10
2011,08,14,01,51,14.10
2011,08,14,01,52,14.10
2011,08,14,01,53,14.10
2011,08,14,01,54,14.10
2011,08,14,01,55,14.10
2011,08,14,01,56,14.10
2011,08,14,01,57,14.10
2011,08,14,01,58,14.10
2011,08,14,01,59,14.10
2011,08,14,02,00,14.10
2011,08,14,02,01,14.10
2011,08,14,02,02,14.10
2011,08,14,02,03,14.10
2011,08,14,02,04,14.10
2011,08,14,02,05,14.10
2011,08,14,02,06,14.10
2011,08,14,02,07,14.10
2011,08,14,02,08,14.10
2011,08,14,02,09,14.10
2011,08,14,02,10,14.10
2011,08,14,02,11,14.00
2011,08,14,02,12,14.00
2011,08,14,02,13,14.00
2011,08,14,02,14,14.00
2011,08,14,02,15,14.00
2011,08,14,02,16,14.00
2011,08,14,02,17,14.00
2011,08,14,02,18,14.00
2011,08,14,02,19,14.00
2011,08,14,02,20,14.00
2011,08,14,02,21,14.00
2011,08,14,02,22,13.90
2011,08,14,02,23,13.90
2011,08,14,02,24,13.90
2011,08,14,02,25,13.90
2011,08,14,02,26,13.90
2011,08,14,02,27,13.90
2011,08,14,02,28,13.90
2011,08,14,02,29,13.90
2011,08,14,02,30,13.90
2011,08,14,02,31,13.90
2011,08,14,02,32,13.80
2011,08,14,02,33,13.80
2011,08,14,02,34,13.80
2011,08,14,02,35,13.80
2011,08,14,02,36,13.80
2011,08,14,02,37,13.80
2011,08,14,02,38,13.80
2011,08,14,02,39,13.80
2011,08,14,02,40,13.80
2011,08,14,02,41,13.80
2011,08,14,02,42,13.80
2011,08,14,02,43,13.70
2011,08,14,02,44,13.70
2011,08,14,02,45,13.70
2011,08,14,02,46,13.70
2011,08,14,02,47,13.70
2011,08,14,02,48,13.70
2011,08,14,02,49,13.70
2011,08,14,02,50,13.70
2011,08,14,02,51,13.70
2011,08,14,02,52,13.70
2011,08,14,02,53,13.70
2011,08,14,02,54,13.70
2011,08,14,02,55,13.70
2011,08,14,02,56,13.60
2011,08,14,02,57,13.60
2011,08,14,02,58,13.60
2011,08,14,02,59,13.60
2011,08,14,03,00,13.60
2011,08,14,03,01,13.60
2011,08,14,03,02,13.60
2011,08,14,03,06,13.50
2011,08,14,03,07,13.40
2011,08,14,03,08,13.40
2011,08,14,03,09,13.40
2011,08,14,03,10,13.30
2011,08,14,03,11,13.30
2011,08,14,03,12,13.20
2011,08,14,03,13,13.20
2011,08,14,03,14,13.10
2011,08,14,03,15,13.10
2011,08,14,03,16,13.10
2011,08,14,03,17,13.10
2011,08,14,03,18,13.00
2011,08,14,03,19,13.00
2011,08,14,03,20,13.00
2011,08,14,03,21,12.90
2011,08,14,03,22,12.90
2011,08,14,03,23,12.90
2011,08,14,03,24,12.80
2011,08,14,03,25,12.80
2011,08,14,03,26,12.80
2011,08,14,03,27,12.80
2011,08,14,03,28,12.80
2011,08,14,03,29,12.80
2011,08,14,03,30,12.70
2011,08,14,03,31,12.70
2011,08,14,03,32,12.70
2011,08,14,03,33,12.70
2011,08,14,03,34,12.70
2011,08,14,03,35,12.70
2011,08,14,03,36,12.70
2011,08,14,03,37,12.60
2011,08,14,03,38,12.60
2011,08,14,03,39,12.60
2011,08,14,03,40,12.60
2011,08,14,03,41,12.60
2011,08,14,03,42,12.60
2011,08,14,03,43,12.60
2011,08,14,03,44,12.60
2011,08,14,03,45,12.60
2011,08,14,03,46,12.60
2011,08,14,03,47,12.60
2011,08,14,03,48,12.60
2011,08,14,03,49,12.60
2011,08,14,03,50,12.60
2011,08,14,03,51,12.60
2011,08,14,03,52,12.60
2011,08,14,03,53,12.60
2011,08,14,03,54,12.60
2011,08,14,03,55,12.60
2011,08,14,03,56,12.50
2011,08,14,03,57,12.50
2011,08,14,03,58,12.50
2011,08,14,03,59,12.50
2011,08,14,04,00,12.50
2011,08,14,04,01,12.60
2011,08,14,04,02,12.50
2011,08,14,04,03,12.50
2011,08,14,04,04,12.50
2011,08,14,04,05,12.50
2011,08,14,04,06,12.50
2011,08,14,04,07,12.50
2011,08,14,04,08,12.50
2011,08,14,04,09,12.50
2011,08,14,04,10,12.50
2011,08,14,04,11,12.50
2011,08,14,04,12,12.50
2011,08,14,04,13,12.50
2011,08,14,04,14,12.50
2011,08,14,04,15,12.50
2011,08,14,04,16,12.50
2011,08,14,04,17,12.50
2011,08,14,04,18,12.50
2011,08,14,04,19,12.50
2011,08,14,04,20,12.50
2011,08,14,04,21,12.50
2011,08,14,04,22,12.50
2011,08,14,04,23,12.50
2011,08,14,04,24,12.50
2011,08,14,04,25,12.50
2011,08,14,04,26,12.50
2011,08,14,04,27,12.50
2011,08,14,04,28,12.40
2011,08,14,04,29,12.40
2011,08,14,04,30,12.40
2011,08,14,04,31,12.40
2011,08,14,04,32,12.40
2011,08,14,04,33,12.40
2011,08,14,04,34,12.40
2011,08,14,04,35,12.40
2011,08,14,04,36,12.40
2011,08,14,04,37,12.40
2011,08,14,04,38,12.40
2011,08,14,04,39,12.40
2011,08,14,04,40,12.40
2011,08,14,04,41,12.40
2011,08,14,04,42,12.40
2011,08,14,04,43,12.40
2011,08,14,04,44,12.40
2011,08,14,04,45,12.40
2011,08,14,04,46,12.40
2011,08,14,04,47,12.40
2011,08,14,04,48,12.40
2011,08,14,04,49,12.40
2011,08,14,04,50,12.40
2011,08,14,04,51,12.40
2011,08,14,04,52,12.40
2011,08,14,04,53,12.40
2011,08,14,04,54,12.40
2011,08,14,04,55,12.30
2011,08,14,04,56,12.30
2011,08,14,04,57,12.30
2011,08,14,04,58,12.30
2011,08,14,04,59,12.30
2011,08,14,05,00,12.30
2011,08,14,05,01,12.30
2011,08,14,05,02,12.30
2011,08,14,05,03,12.30
2011,08,14,05,04,12.30
2011,08,14,05,05,12.20
2011,08,14,05,06,12.20
2011,08,14,05,07,12.20
2011,08,14,05,08,12.20
2011,08,14,05,09,12.20
2011,08,14,05,10,12.10
2011,08,14,05,11,12.10
2011,08,14,05,12,12.10
2011,08,14,05,13,12.10
2011,08,14,05,14,12.10
2011,08,14,05,15,12.10
2011,08,14,05,16,12.10
2011,08,14,05,17,12.10
2011,08,14,05,18,12.10
2011,08,14,05,19,12.00
2011,08,14,05,20,12.00
2011,08,14,05,21,12.00
2011,08,14,05,22,12.00
2011,08,14,05,23,12.00
2011,08,14,05,24,12.00
2011,08,14,05,25,11.90
2011,08,14,05,26,11.90
2011,08,14,05,27,11.90
2011,08,14,05,28,11.90
2011,08,14,05,29,11.90
2011,08,14,05,30,11.90
2011,08,14,05,31,11.90
2011,08,14,05,32,11.90
2011,08,14,05,33,11.80
2011,08,14,05,34,11.80
2011,08,14,05,35,11.80
2011,08,14,05,36,11.80
2011,08,14,05,37,11.80
2011,08,14,05,38,11.80
2011,08,14,05,39,11.80
2011,08,14,05,40,11.80
2011,08,14,05,41,11.80
2011,08,14,05,42,11.70
2011,08,14,05,43,11.70
2011,08,14,05,44,11.70
2011,08,14,05,45,11.70
2011,08,14,05,46,11.70
2011,08,14,05,47,11.70
2011,08,14,05,48,11.70
2011,08,14,05,49,11.70
2011,08,14,05,50,11.70
2011,08,14,05,51,11.70
2011,08,14,05,52,11.60
2011,08,14,05,53,11.60
2011,08,14,05,54,11.60
2011,08,14,05,55,11.60
2011,08,14,05,56,11.60
2011,08,14,05,57,11.60
2011,08,14,05,58,11.60
2011,08,14,05,59,11.60
2011,08,14,06,00,11.60
2011,08,14,06,01,11.60
2011,08,14,06,02,11.60
2011,08,14,06,03,11.60
2011,08,14,06,04,11.60
2011,08,14,06,05,11.50
2011,08,14,06,06,11.50
2011,08,14,06,07,11.50
2011,08,14,06,08,11.50
2011,08,14,06,09,11.50
2011,08,14,06,10,11.50
2011,08,14,06,11,11.50
2011,08,14,06,12,11.50
2011,08,14,06,13,11.50
2011,08,14,06,14,11.50
2011,08,14,06,15,11.50
2011,08,14,06,16,11.40
2011,08,14,06,17,11.40
2011,08,14,06,18,11.40
2011,08,14,06,19,11.40
2011,08,14,06,20,11.40
2011,08,14,06,21,11.40
2011,08,14,06,22,11.40
2011,08,14,06,23,11.40
2011,08,14,06,24,11.40
2011,08,14,06,25,11.40
2011,08,14,06,26,11.40
2011,08,14,06,27,11.40
2011,08,14,06,28,11.40
2011,08,14,06,29,11.40
2011,08,14,06,30,11.40
2011,08,14,06,31,11.40
2011,08,14,06,32,11.40
2011,08,14,06,33,11.40
2011,08,14,06,34,11.40
2011,08,14,06,35,11.40
2011,08,14,06,36,11.40
2011,08,14,06,37,11.40
2011,08,14,06,38,11.40
2011,08,14,06,39,11.40
2011,08,14,06,40,11.40
2011,08,14,06,41,11.40
2011,08,14,06,42,11.40
2011,08,14,06,43,11.40
2011,08,14,06,44,11.30
2011,08,14,06,45,11.40
2011,08,14,06,46,11.40
2011,08,14,06,47,11.30
2011,08,14,06,48,11.30
2011,08,14,06,49,11.30
2011,08,14,06,50,11.30
2011,08,14,06,51,11.30
2011,08,14,06,52,11.30
2011,08,14,06,53,11.30
2011,08,14,06,54,11.30
2011,08,14,06,55,11.30
2011,08,14,06,56,11.30
2011,08,14,06,57,11.30
2011,08,14,06,58,11.30
2011,08,14,06,59,11.30
2011,08,14,07,00,11.30
2011,08,14,07,01,11.30
2011,08,14,07,02,11.30
2011,08,14,07,03,11.30
2011,08,14,07,04,11.30
2011,08,14,07,05,11.30
2011,08,14,07,06,11.30
2011,08,14,07,07,11.30
2011,08,14,07,08,11.30
2011,08,14,07,09,11.30
2011,08,14,07,10,11.30
2011,08,14,07,11,11.40
2011,08,14,07,12,11.40
2011,08,14,07,13,11.40
2011,08,14,07,14,11.40
2011,08,14,07,15,11.40
2011,08,14,07,16,11.40
2011,08,14,07,17,11.40
2011,08,14,07,18,11.50
2011,08,14,07,19,11.50
2011,08,14,07,20,11.50
2011,08,14,07,21,11.50
2011,08,14,07,22,11.60
2011,08,14,07,23,11.60
2011,08,14,07,24,11.60
2011,08,14,07,25,11.60
2011,08,14,07,26,11.60
2011,08,14,07,27,11.60
2011,08,14,07,28,11.70
2011,08,14,07,29,11.70
2011,08,14,07,30,11.70
2011,08,14,07,31,11.80
2011,08,14,07,32,11.80
2011,08,14,07,33,11.80
2011,08,14,07,34,11.90
2011,08,14,07,35,11.90
2011,08,14,07,36,11.90
2011,08,14,07,37,12.00
2011,08,14,07,38,12.00
2011,08,14,07,39,12.00
2011,08,14,07,40,12.10
2011,08,14,07,41,12.10
2011,08,14,07,42,12.10
2011,08,14,07,43,12.20
2011,08,14,07,44,12.20
2011,08,14,07,45,12.20
2011,08,14,07,46,12.20
2011,08,14,07,47,12.30
2011,08,14,07,48,12.30
2011,08,14,07,49,12.40
2011,08,14,07,50,12.40
2011,08,14,07,51,12.40
2011,08,14,07,52,12.50
2011,08,14,07,53,12.50
2011,08,14,07,54,12.60
2011,08,14,07,55,12.60
2011,08,14,07,56,12.60
2011,08,14,07,57,12.60
2011,08,14,07,58,12.60
2011,08,14,07,59,12.70
2011,08,14,08,00,12.70
2011,08,14,08,01,12.70
2011,08,14,08,02,12.80
2011,08,14,08,03,12.80
2011,08,14,08,04,12.80
2011,08,14,08,05,12.90
2011,08,14,08,06,12.90
2011,08,14,08,07,13.00
2011,08,14,08,08,13.00
2011,08,14,08,09,13.10
2011,08,14,08,10,13.10
2011,08,14,08,11,13.20
2011,08,14,08,12,13.20
2011,08,14,08,13,13.20
2011,08,14,08,14,13.30
2011,08,14,08,15,13.30
2011,08,14,08,16,13.40
2011,08,14,08,17,13.50
2011,08,14,08,18,13.50
2011,08,14,08,19,13.60
2011,08,14,08,20,13.60
2011,08,14,08,21,13.70
2011,08,14,08,22,13.70
2011,08,14,08,23,13.80
2011,08,14,08,24,13.80
2011,08,14,08,25,13.90
2011,08,14,08,26,13.90
2011,08,14,08,27,14.00
2011,08,14,08,28,14.00
2011,08,14,08,29,14.10
2011,08,14,08,30,14.10
2011,08,14,08,31,14.20
2011,08,14,08,32,14.20
2011,08,14,08,33,14.30
2011,08,14,08,34,14.30
2011,08,14,08,35,14.40
2011,08,14,08,36,14.40
2011,08,14,08,37,14.50
2011,08,14,08,38,14.50
2011,08,14,08,39,14.60
2011,08,14,08,40,14.70
2011,08,14,08,41,14.70
2011,08,14,08,42,14.80
2011,08,14,08,43,14.80
2011,08,14,08,44,15.00
2011,08,14,08,45,15.00
2011,08,14,08,46,15.00
2011,08,14,08,47,15.00
2011,08,14,08,48,15.20
2011,08,14,08,49,15.40
2011,08,14,08,50,15.60
2011,08,14,08,51,15.70
2011,08,14,08,52,15.80
2011,08,14,08,53,15.80
2011,08,14,08,54,15.90
2011,08,14,08,55,16.10
2011,08,14,08,56,16.20
2011,08,14,08,57,16.20
2011,08,14,08,58,16.30
2011,08,14,08,59,16.40
2011,08,14,09,00,16.50
2011,08,14,09,01,16.50
2011,08,14,09,02,16.60
2011,08,14,09,03,16.70
2011,08,14,09,04,16.70
2011,08,14,09,05,16.80
2011,08,14,09,06,16.90
2011,08,14,09,07,16.90
2011,08,14,09,08,16.90
2011,08,14,09,09,17.00
2011,08,14,09,10,17.10
2011,08,14,09,11,17.10
2011,08,14,09,12,17.10
2011,08,14,09,13,17.10
2011,08,14,09,14,17.10
2011,08,14,09,15,17.20
2011,08,14,09,16,17.20
2011,08,14,09,17,17.20
2011,08,14,09,18,17.20
2011,08,14,09,19,17.20
2011,08,14,09,20,17.20
2011,08,14,09,21,17.20
2011,08,14,09,22,17.20
2011,08,14,09,23,17.20
2011,08,14,09,24,17.20
2011,08,14,09,25,17.30
2011,08,14,09,26,17.30
2011,08,14,09,27,17.30
2011,08,14,09,28,17.40
2011,08,14,09,29,17.50
2011,08,14,09,30,17.60
2011,08,14,09,31,17.70
2011,08,14,09,32,17.70
2011,08,14,09,33,17.70
2011,08,14,09,34,17.80
2011,08,14,09,35,17.80
2011,08,14,09,36,17.80
2011,08,14,09,37,17.90
2011,08,14,09,38,18.00
2011,08,14,09,39,18.10
2011,08,14,09,40,18.10
2011,08,14,09,41,18.20
2011,08,14,09,42,18.20
2011,08,14,09,43,18.30
2011,08,14,09,44,18.40
2011,08,14,09,45,18.50
2011,08,14,09,46,18.60
2011,08,14,09,47,18.70
2011,08,14,09,48,18.80
2011,08,14,09,49,18.80
2011,08,14,09,50,18.80
2011,08,14,09,51,18.80
2011,08,14,09,52,18.80
2011,08,14,09,53,18.70
2011,08,14,09,54,18.80
2011,08,14,09,55,18.80
2011,08,14,09,56,18.80
2011,08,14,09,57,18.70
2011,08,14,09,58,18.70
2011,08,14,09,59,18.60
2011,08,14,10,00,18.60
2011,08,14,10,01,18.60
2011,08,14,10,02,18.60
2011,08,14,10,03,18.60
2011,08,14,10,04,18.60
2011,08,14,10,05,18.60
2011,08,14,10,06,18.60
2011,08,14,10,07,18.60
2011,08,14,10,08,18.50
2011,08,14,10,09,18.40
2011,08,14,10,10,18.30
2011,08,14,10,11,18.20
2011,08,14,10,12,18.20
2011,08,14,10,13,18.10
2011,08,14,10,14,18.10
2011,08,14,10,15,18.10
2011,08,14,10,16,18.00
2011,08,14,10,17,18.00
2011,08,14,10,18,18.00
2011,08,14,10,19,18.00
2011,08,14,10,20,17.90
2011,08,14,10,21,17.90
2011,08,14,10,22,17.90
2011,08,14,10,23,17.90
2011,08,14,10,24,17.80
2011,08,14,10,25,17.80
2011,08,14,10,26,17.80
2011,08,14,10,27,17.80
2011,08,14,10,28,17.70
2011,08,14,10,29,17.70
2011,08,14,10,30,17.60
2011,08,14,10,31,17.60
2011,08,14,10,32,17.60
2011,08,14,10,33,17.60
2011,08,14,10,34,17.60
2011,08,14,10,35,17.60
2011,08,14,10,36,17.60
2011,08,14,10,37,17.60
2011,08,14,10,38,17.60
2011,08,14,10,39,17.60
2011,08,14,10,40,17.70
2011,08,14,10,41,17.70
2011,08,14,10,42,17.70
2011,08,14,10,43,17.70
2011,08,14,10,44,17.70
2011,08,14,10,45,17.70
2011,08,14,10,46,17.70
2011,08,14,10,47,17.70
2011,08,14,10,48,17.60
2011,08,14,10,49,17.60
2011,08,14,10,50,17.50
2011,08,14,10,51,17.40
2011,08,14,10,52,17.40
2011,08,14,10,53,17.30
2011,08,14,10,54,17.30
2011,08,14,10,55,17.30
2011,08,14,10,56,17.30
2011,08,14,10,57,17.20
2011,08,14,10,58,17.20
2011,08,14,10,59,17.20
2011,08,14,11,00,17.20
2011,08,14,11,01,17.20
2011,08,14,11,02,17.20
2011,08,14,11,03,17.30
2011,08,14,11,04,17.30
2011,08,14,11,05,17.30
2011,08,14,11,06,17.40
2011,08,14,11,07,17.40
2011,08,14,11,08,17.50
2011,08,14,11,09,17.60
2011,08,14,11,10,17.60
2011,08,14,11,11,17.60
2011,08,14,11,12,17.50
2011,08,14,11,13,17.40
2011,08,14,11,14,17.30
2011,08,14,11,15,17.30
2011,08,14,11,16,17.30
2011,08,14,11,17,17.40
2011,08,14,11,18,17.60
2011,08,14,11,19,17.60
2011,08,14,11,20,17.70
2011,08,14,11,21,17.80
2011,08,14,11,22,17.80
2011,08,14,11,23,17.90
2011,08,14,11,24,17.90
2011,08,14,11,25,17.80
2011,08,14,11,26,17.60
2011,08,14,11,27,17.60
2011,08,14,11,28,17.70
2011,08,14,11,29,17.80
2011,08,14,11,30,17.90
2011,08,14,11,31,18.00
2011,08,14,11,32,17.90
2011,08,14,11,33,17.90
2011,08,14,11,34,17.90
2011,08,14,11,35,17.80
2011,08,14,11,36,17.80
2011,08,14,11,37,17.90
2011,08,14,11,38,18.00
2011,08,14,11,39,18.10
2011,08,14,11,40,18.20
2011,08,14,11,41,18.20
2011,08,14,11,42,18.20
2011,08,14,11,43,18.10
2011,08,14,11,44,18.10
2011,08,14,11,45,18.10
2011,08,14,11,46,18.10
2011,08,14,11,47,18.30
2011,08,14,11,48,18.40
2011,08,14,11,49,18.50
2011,08,14,11,50,18.70
2011,08,14,11,51,18.80
2011,08,14,11,52,18.80
2011,08,14,11,53,18.80
2011,08,14,11,54,18.80
2011,08,14,11,55,18.80
2011,08,14,11,56,18.90
2011,08,14,11,57,18.90
2011,08,14,11,58,18.90
2011,08,14,11,59,18.90
2011,08,14,12,00,18.90
2011,08,14,12,01,18.70
2011,08,14,12,02,18.60
2011,08,14,12,03,18.40
2011,08,14,12,04,18.40
2011,08,14,12,05,18.40
2011,08,14,12,06,18.50
2011,08,14,12,07,18.60
2011,08,14,12,08,18.60
2011,08,14,12,09,18.60
2011,08,14,12,10,18.70
2011,08,14,12,11,18.80
2011,08,14,12,12,18.80
2011,08,14,12,13,18.90
2011,08,14,12,14,18.90
2011,08,14,12,15,18.90
2011,08,14,12,16,19.00
2011,08,14,12,17,19.20
2011,08,14,12,18,19.40
2011,08,14,12,19,19.40
2011,08,14,12,20,19.40
2011,08,14,12,21,19.40
2011,08,14,12,22,19.30
2011,08,14,12,23,19.20
2011,08,14,12,24,19.20
2011,08,14,12,25,19.30
2011,08,14,12,26,19.30
2011,08,14,12,27,19.40
2011,08,14,12,28,19.40
2011,08,14,12,29,19.20
2011,08,14,12,30,19.10
2011,08,14,12,31,18.90
2011,08,14,12,32,18.80
2011,08,14,12,33,18.70
2011,08,14,12,34,18.70
2011,08,14,12,35,18.70
2011,08,14,12,36,18.70
2011,08,14,12,37,18.60
2011,08,14,12,38,18.60
2011,08,14,12,39,18.50
2011,08,14,12,40,18.50
2011,08,14,12,41,18.60
2011,08,14,12,42,18.70
2011,08,14,12,43,18.80
2011,08,14,12,44,18.90
2011,08,14,12,45,18.90
2011,08,14,12,46,19.00
2011,08,14,12,47,19.10
2011,08,14,12,48,19.00
2011,08,14,12,49,18.80
2011,08,14,12,50,18.80
2011,08,14,12,51,18.80
2011,08,14,12,52,18.90
2011,08,14,12,53,19.00
2011,08,14,12,54,19.20
2011,08,14,12,55,19.40
2011,08,14,12,56,19.60
2011,08,14,12,57,19.80
2011,08,14,12,58,20.00
2011,08,14,12,59,20.20
2011,08,14,13,00,20.30
2011,08,14,13,01,20.40
2011,08,14,13,02,20.40
2011,08,14,13,03,20.40
2011,08,14,13,04,20.40
2011,08,14,13,05,20.40
2011,08,14,13,06,20.30
2011,08,14,13,07,20.30
2011,08,14,13,08,20.20
2011,08,14,13,09,20.10
2011,08,14,13,10,20.00
2011,08,14,13,11,20.00
2011,08,14,13,12,19.90
2011,08,14,13,13,19.90
2011,08,14,13,14,19.90
2011,08,14,13,15,19.90
2011,08,14,13,16,20.00
2011,08,14,13,17,20.10
2011,08,14,13,18,20.20
2011,08,14,13,19,20.20
2011,08,14,13,20,20.20
2011,08,14,13,21,20.20
2011,08,14,13,22,20.20
2011,08,14,13,23,20.20
2011,08,14,13,24,20.10
2011,08,14,13,25,20.10
2011,08,14,13,26,20.00
2011,08,14,13,27,20.00
2011,08,14,13,28,19.90
2011,08,14,13,29,19.80
2011,08,14,13,30,19.70
2011,08,14,13,31,19.50
2011,08,14,13,32,19.30
2011,08,14,13,33,19.10
2011,08,14,13,34,19.00
2011,08,14,13,35,18.90
2011,08,14,13,36,18.80
2011,08,14,13,37,18.80
2011,08,14,13,38,18.70
2011,08,14,13,39,18.70
2011,08,14,13,40,18.70
2011,08,14,13,41,18.70
2011,08,14,13,42,18.70
2011,08,14,13,43,18.70
2011,08,14,13,44,18.70
2011,08,14,13,45,18.70
2011,08,14,13,46,18.70
2011,08,14,13,47,18.70
2011,08,14,13,48,18.70
2011,08,14,13,49,18.70
2011,08,14,13,50,18.50
2011,08,14,13,51,18.50
2011,08,14,13,52,18.40
2011,08,14,13,53,18.30
2011,08,14,13,54,18.30
2011,08,14,13,55,18.20
2011,08,14,13,56,18.20
2011,08,14,13,57,18.20
2011,08,14,13,58,18.20
2011,08,14,13,59,18.10
2011,08,14,14,00,18.20
2011,08,14,14,01,18.20
2011,08,14,14,02,18.20
2011,08,14,14,03,18.20
2011,08,14,14,04,18.20
2011,08,14,14,05,18.20
2011,08,14,14,06,18.20
2011,08,14,14,07,18.20
2011,08,14,14,08,18.20
2011,08,14,14,09,18.20
2011,08,14,14,10,18.20
2011,08,14,14,11,18.20
2011,08,14,14,12,18.20
2011,08,14,14,13,18.20
2011,08,14,14,14,18.20
2011,08,14,14,15,18.20
2011,08,14,14,16,18.20
2011,08,14,14,17,18.20
2011,08,14,14,18,18.20
2011,08,14,14,19,18.10
2011,08,14,14,20,18.10
2011,08,14,14,21,18.10
2011,08,14,14,22,18.00
2011,08,14,14,23,17.90
2011,08,14,14,24,17.90
2011,08,14,14,25,17.90
2011,08,14,14,26,17.90
2011,08,14,14,27,17.80
2011,08,14,14,28,17.80
2011,08,14,14,29,17.80
2011,08,14,14,30,17.80
2011,08,14,14,31,17.90
2011,08,14,14,32,17.90
2011,08,14,14,33,17.90
2011,08,14,14,34,17.90
2011,08,14,14,35,17.90
2011,08,14,14,36,18.00
2011,08,14,14,37,18.00
2011,08,14,14,38,18.00
2011,08,14,14,39,18.00
2011,08,14,14,40,18.00
2011,08,14,14,41,18.00
2011,08,14,14,42,18.00
2011,08,14,14,43,18.00
2011,08,14,14,44,18.00
2011,08,14,14,45,18.10
2011,08,14,14,46,18.10
2011,08,14,14,47,18.10
2011,08,14,14,48,18.20
2011,08,14,14,49,18.20
2011,08,14,14,50,18.20
2011,08,14,14,51,18.20
2011,08,14,14,52,18.20
2011,08,14,14,53,18.20
2011,08,14,14,54,18.20
2011,08,14,14,55,18.20
2011,08,14,14,56,18.20
2011,08,14,14,57,18.20
2011,08,14,14,58,18.20
2011,08,14,14,59,18.20
2011,08,14,15,00,18.20
2011,08,14,15,01,18.20
2011,08,14,15,02,18.20
2011,08,14,15,03,18.20
2011,08,14,15,04,18.20
2011,08,14,15,05,18.10
2011,08,14,15,06,18.10
2011,08,14,15,07,18.00
2011,08,14,15,08,18.00
2011,08,14,15,09,17.90
2011,08,14,15,10,17.90
2011,08,14,15,11,17.90
2011,08,14,15,12,17.90
2011,08,14,15,13,17.90
2011,08,14,15,14,17.90
2011,08,14,15,15,17.80
2011,08,14,15,16,17.80
2011,08,14,15,17,17.80
2011,08,14,15,18,17.80
2011,08,14,15,19,17.70
2011,08,14,15,20,17.70
2011,08,14,15,21,17.60
2011,08,14,15,22,17.60
2011,08,14,15,23,17.50
2011,08,14,15,24,17.40
2011,08,14,15,25,17.40
2011,08,14,15,26,17.40
2011,08,14,15,27,17.30
2011,08,14,15,28,17.30
2011,08,14,15,29,17.30
2011,08,14,15,30,17.30
2011,08,14,15,31,17.30
2011,08,14,15,32,17.30
2011,08,14,15,33,17.20
2011,08,14,15,34,17.20
2011,08,14,15,35,17.20
2011,08,14,15,36,17.20
2011,08,14,15,37,17.10
2011,08,14,15,38,17.10
2011,08,14,15,39,17.10
2011,08,14,15,40,17.10
2011,08,14,15,41,17.00
2011,08,14,15,42,17.00
2011,08,14,15,43,17.00
2011,08,14,15,44,17.00
2011,08,14,15,45,17.00
2011,08,14,15,46,17.10
2011,08,14,15,47,17.10
2011,08,14,15,48,17.10
2011,08,14,15,49,17.10
2011,08,14,15,50,17.10
2011,08,14,15,51,17.10
2011,08,14,15,52,17.10
2011,08,14,15,53,17.10
2011,08,14,15,54,17.20
2011,08,14,15,55,17.20
2011,08,14,15,56,17.20
2011,08,14,15,57,17.20
2011,08,14,15,58,17.30
2011,08,14,15,59,17.30
2011,08,14,16,00,17.40
2011,08,14,16,01,17.40
2011,08,14,16,02,17.50
2011,08,14,16,03,17.50
2011,08,14,16,04,17.60
2011,08,14,16,05,17.70
2011,08,14,16,06,17.70
2011,08,14,16,07,17.70
2011,08,14,16,08,17.80
2011,08,14,16,09,17.90
2011,08,14,16,10,17.90
2011,08,14,16,11,18.00
2011,08,14,16,12,18.00
2011,08,14,16,13,18.10
2011,08,14,16,14,18.20
2011,08,14,16,15,18.20
2011,08,14,16,16,18.20
2011,08,14,16,17,18.20
2011,08,14,16,18,18.20
2011,08,14,16,19,18.20
2011,08,14,16,20,18.20
2011,08,14,16,21,18.20
2011,08,14,16,22,18.20
2011,08,14,16,23,18.20
2011,08,14,16,24,18.20
2011,08,14,16,25,18.10
2011,08,14,16,26,18.10
2011,08,14,16,27,18.10
2011,08,14,16,28,18.10
2011,08,14,16,29,18.10
2011,08,14,16,30,18.10
2011,08,14,16,31,18.10
2011,08,14,16,32,18.10
2011,08,14,16,33,18.20
2011,08,14,16,34,18.20
2011,08,14,16,35,18.20
2011,08,14,16,36,18.20
2011,08,14,16,37,18.20
2011,08,14,16,38,18.20
2011,08,14,16,39,18.20
2011,08,14,16,40,18.20
2011,08,14,16,41,18.20
2011,08,14,16,42,18.20
2011,08,14,16,43,18.20
2011,08,14,16,44,18.20
2011,08,14,16,45,18.20
2011,08,14,16,46,18.20
2011,08,14,16,47,18.20
2011,08,14,16,48,18.20
2011,08,14,16,49,18.20
2011,08,14,16,50,18.20
2011,08,14,16,51,18.20
2011,08,14,16,52,18.20
2011,08,14,16,53,18.20
2011,08,14,16,54,18.20
2011,08,14,16,55,18.20
2011,08,14,16,56,18.30
2011,08,14,16,57,18.30
2011,08,14,16,58,18.30
2011,08,14,16,59,18.30
2011,08,14,17,00,18.40
2011,08,14,17,01,18.40
2011,08,14,17,02,18.40
2011,08,14,17,03,18.40
2011,08,14,17,04,18.50
2011,08,14,17,05,18.50
2011,08,14,17,06,18.60
2011,08,14,17,07,18.60
2011,08,14,17,08,18.60
2011,08,14,17,09,18.70
2011,08,14,17,10,18.70
2011,08,14,17,11,18.80
2011,08,14,17,12,18.90
2011,08,14,17,13,18.90
2011,08,14,17,14,19.00
2011,08,14,17,15,19.00
2011,08,14,17,16,19.00
2011,08,14,17,17,18.90
2011,08,14,17,18,18.90
2011,08,14,17,19,18.90
2011,08,14,17,20,18.90
2011,08,14,17,21,18.90
2011,08,14,17,22,18.90